Date String (YYYY-MM-DD hh:mm:ss) UTC,Instrument flags,Ambient pressure (hPa),Sample flow (lpm),Bypass flow (lpm),Sample temperature (°C),Ambient temperature (°C),ASC tube jacket temperature (°C),LED temperature (°C),Box temperature (°C),Sample RH (%),Span deviation,Mass concentration (μg/m³),Mass concentration (μg/m³),Mass concentration (μg/m³)
DateTimeUTC,F1_M11,P_M11,Q1_M11,Q2_M11,T1_M11,T2_M11,T3_M11,T4_M11,T5_M11,U1_M11,ZSPAN_M11,X0_M11,X2_M11,X1_M11
2021-09-07 06:00:00,,0829.3,5.00,0.00,29.5,28.3,00.0,38.5,31.3,08.4,0002.2,0028.97,0022.18,0021.05
2021-09-07 06:01:00,,0829.3,5.00,0.00,29.5,28.4,00.0,38.6,31.3,08.4,0002.5,0028.84,0022.13,0021.01
2021-09-07 06:02:00,,0829.3,4.99,0.00,29.6,28.5,00.0,38.6,31.3,08.4,0002.4,0028.70,0022.09,0020.99
2021-09-07 06:03:00,,0829.3,5.01,0.00,29.6,28.6,00.0,38.6,31.4,08.4,0001.8,0028.58,0021.98,0020.90
2021-09-07 06:04:00,,0829.3,5.00,0.00,29.6,28.7,00.0,38.6,31.4,08.4,0001.4,0028.62,0021.97,0020.90
2021-09-07 06:05:00,,0829.3,5.00,0.00,29.7,28.7,00.0,38.6,31.4,08.4,0001.0,0028.56,0021.96,0020.87
2021-09-07 06:06:00,,0829.3,4.99,0.00,29.7,27.5,00.0,38.6,31.2,08.4,0000.8,0029.15,0021.92,0020.82
2021-09-07 06:07:00,,0829.3,5.01,0.00,29.5,26.3,00.0,38.6,30.9,08.4,0000.4,0029.15,0021.92,0020.80
2021-09-07 06:08:00,,0829.2,5.00,0.00,29.4,26.4,00.0,38.6,30.9,08.5,0000.6,0029.20,0021.96,0020.82
2021-09-07 06:09:00,,0829.3,4.99,0.00,29.4,26.8,00.0,38.6,30.9,08.6,0001.3,0029.09,0021.92,0020.82
2021-09-07 06:10:00,,0829.2,5.01,0.00,29.4,27.2,00.0,38.5,31.0,08.6,0001.7,0029.12,0021.89,0020.78
2021-09-07 06:11:00,,0829.2,4.99,0.00,29.4,27.5,00.0,38.5,31.0,08.6,0001.9,0029.56,0021.90,0020.77
2021-09-07 06:12:00,,0829.2,5.01,0.00,29.4,27.8,00.0,38.5,31.1,08.7,0002.2,0029.83,0021.83,0020.72
2021-09-07 06:13:00,,0829.3,5.00,0.00,29.4,28.0,00.0,38.5,31.2,08.7,0002.5,0029.75,0021.78,0020.68
2021-09-07 06:14:00,,0829.2,5.01,0.00,29.5,28.2,00.0,38.5,31.2,08.7,0002.7,0029.96,0021.75,0020.65
2021-09-07 06:15:00,,0829.3,4.99,0.00,29.5,28.3,00.0,38.5,31.2,08.8,0002.8,0030.01,0021.69,0020.56
2021-09-07 06:16:00,,0829.2,5.01,0.00,29.5,28.4,00.0,38.5,31.3,08.7,0003.2,0030.13,0021.67,0020.52
2021-09-07 06:17:00,,0829.2,4.99,0.00,29.6,28.5,00.0,38.6,31.3,08.7,0003.3,0029.63,0021.66,0020.52
2021-09-07 06:18:00,,0829.2,5.00,0.00,29.6,28.6,00.0,38.6,31.4,08.6,0003.1,0030.38,0021.61,0020.47
2021-09-07 06:19:00,,0829.3,5.00,0.00,29.6,28.7,00.0,38.6,31.4,08.5,0002.9,0030.35,0021.58,0020.42
2021-09-07 06:20:00,,0829.2,5.00,0.00,29.7,28.7,00.0,38.6,31.5,08.5,0002.4,0030.85,0021.59,0020.36
2021-09-07 06:21:00,,0829.2,5.01,0.00,29.7,28.8,00.0,38.7,31.5,08.6,0002.2,0031.16,0021.53,0020.31
2021-09-07 06:22:00,,0829.3,4.99,0.00,29.7,28.8,00.0,38.7,31.5,08.6,0002.3,0030.77,0021.42,0020.26
2021-09-07 06:23:00,,0829.3,5.00,0.00,29.7,27.6,00.0,38.7,31.2,08.6,0002.0,0030.72,0021.46,0020.28
2021-09-07 06:24:00,,0829.3,5.00,0.00,29.5,25.6,00.0,38.6,30.6,08.6,0001.8,0030.84,0021.46,0020.27
2021-09-07 06:25:00,,0829.3,5.00,0.00,29.4,25.3,00.0,38.6,30.5,08.6,0001.6,0030.72,0021.45,0020.26
2021-09-07 06:26:00,,0829.3,5.01,0.00,29.3,25.7,00.0,38.6,30.6,08.7,0001.7,0030.74,0021.37,0020.23
2021-09-07 06:27:00,,0829.2,5.00,0.00,29.2,26.2,00.0,38.5,30.7,08.7,0001.3,0031.32,0021.34,0020.20
2021-09-07 06:28:00,,0829.3,5.01,0.00,29.2,26.7,00.0,38.5,30.7,08.7,0001.6,0031.38,0021.27,0020.15
2021-09-07 06:29:00,,0829.3,4.99,0.00,29.2,27.1,00.0,38.4,30.8,08.7,0002.1,0030.57,0021.24,0020.13
2021-09-07 06:30:00,,0829.3,5.01,0.00,29.2,27.4,00.0,38.4,30.9,08.7,0002.3,0030.62,0021.18,0020.12
2021-09-07 06:31:00,,0829.2,4.99,0.00,29.2,27.7,00.0,38.4,30.9,08.6,0002.5,0030.53,0021.10,0020.08
2021-09-07 06:32:00,,0829.2,5.00,0.00,29.3,27.8,00.0,38.4,31.0,08.6,0002.4,0030.10,0021.05,0020.05
2021-09-07 06:33:00,,0829.3,5.01,0.00,29.3,28.0,00.0,38.4,31.1,08.6,0001.9,0029.84,0021.03,0020.01
2021-09-07 06:34:00,,0829.3,5.00,0.00,29.3,28.1,00.0,38.4,31.1,08.6,0002.1,0030.30,0020.97,0019.95
2021-09-07 06:35:00,,0829.2,5.00,0.00,29.4,28.3,00.0,38.4,31.1,08.5,0002.2,0030.73,0020.97,0019.92
2021-09-07 06:36:00,,0829.3,4.98,0.00,29.4,28.3,00.0,38.4,31.2,08.5,0002.4,0030.67,0020.94,0019.87
2021-09-07 06:37:00,,0829.2,5.01,0.00,29.4,28.4,00.0,38.5,31.2,08.4,0002.2,0030.43,0020.95,0019.86
2021-09-07 06:38:00,,0829.3,5.00,0.00,29.5,28.5,00.0,38.5,31.3,08.4,0002.4,0029.61,0020.92,0019.85
2021-09-07 06:39:00,,0829.3,4.99,0.00,29.5,28.6,00.0,38.5,31.3,08.4,0002.4,0029.29,0020.89,0019.83
2021-09-07 06:40:00,,0829.2,5.01,0.00,29.6,28.6,00.0,38.5,31.4,08.3,0002.3,0029.03,0020.81,0019.80
2021-09-07 06:41:00,,0829.3,5.00,0.00,29.6,28.7,00.0,38.5,31.4,08.4,0002.6,0028.83,0020.77,0019.77
2021-09-07 06:42:00,,0829.3,5.00,0.00,29.6,28.7,00.0,38.6,31.4,08.4,0002.4,0028.35,0020.76,0019.75
2021-09-07 06:43:00,,0829.3,4.99,0.00,29.7,28.8,00.0,38.6,31.5,08.4,0002.1,0028.53,0020.74,0019.75
2021-09-07 06:44:00,,0829.2,5.00,0.00,29.7,28.8,00.0,38.6,31.5,08.5,0002.2,0028.91,0020.73,0019.77
2021-09-07 06:45:00,,0829.2,5.01,0.00,29.7,28.3,00.0,38.6,31.4,08.4,0002.6,0028.59,0020.73,0019.75
2021-09-07 06:46:00,,0829.3,5.00,0.00,29.6,26.5,00.0,38.6,31.0,08.5,0002.8,0028.14,0020.74,0019.76
2021-09-07 06:47:00,,0829.3,5.01,0.00,29.5,26.2,00.0,38.6,30.8,08.6,0002.6,0028.63,0020.82,0019.83
2021-09-07 06:48:00,,0829.2,5.00,0.00,29.4,26.5,00.0,38.6,30.9,08.6,0002.6,0029.46,0020.88,0019.89
2021-09-07 06:49:00,,0829.3,4.99,0.00,29.3,26.9,00.0,38.5,30.9,08.6,0002.6,0030.88,0020.95,0019.92
2021-09-07 06:50:00,,0829.2,5.01,0.00,29.3,27.3,00.0,38.5,30.9,08.6,0002.6,0032.00,0021.05,0019.99
2021-09-07 06:51:00,,0829.2,4.99,0.00,29.4,27.6,00.0,38.5,31.0,08.6,0002.3,0032.66,0021.11,0020.06
2021-09-07 06:52:00,,0829.2,5.02,0.00,29.4,27.8,00.0,38.5,31.1,08.7,0002.2,0033.01,0021.18,0020.09
2021-09-07 06:53:00,,0829.3,5.00,0.00,29.4,28.0,00.0,38.5,31.1,08.7,0002.5,0033.38,0021.24,0020.15
2021-09-07 06:54:00,,0829.3,5.00,0.00,29.4,28.1,00.0,38.5,31.2,08.7,0003.6,0033.35,0021.34,0020.21
2021-09-07 06:55:00,,0829.3,4.99,0.00,29.5,28.3,00.0,38.5,31.2,08.7,0003.0,0032.86,0021.35,0020.23
2021-09-07 06:56:00,,0829.3,5.00,0.00,29.5,28.4,00.0,38.5,31.2,08.6,0002.9,0032.62,0021.38,0020.28
2021-09-07 06:57:00,,0829.3,5.00,0.00,29.5,28.5,00.0,38.6,31.3,08.6,0002.6,0032.74,0021.39,0020.29
2021-09-07 06:58:00,,0829.3,5.00,0.00,29.6,28.5,00.0,38.6,31.3,08.6,0002.5,0032.43,0021.41,0020.29
2021-09-07 06:59:00,,0829.2,5.00,0.00,29.6,28.6,00.0,38.6,31.3,08.7,0002.5,0031.51,0021.42,0020.29
